| time (UTC) | temp C | wind direction | speed KPH | gust KPH | rain 1hr cm | rain 24hr cm | rain mn cm | humidity % | barometer mb |
| 20260505063603 | 9 | 236 | 6.4 | 11.3 | 0.00 | 0.00 | 0.00 | 68 | 1022.6 |
| 20260505062703 | 9 | 233 | 4.8 | 11.3 | 0.00 | 0.00 | 0.00 | 69 | 1022.6 |
| 20260505062017 | 8 | 228 | 6.4 | 11.3 | 0.00 | 0.00 | 0.00 | 69 | 1022.6 |
| 20260505060903 | 8 | 229 | 6.4 | 9.7 | 0.00 | 0.00 | 0.00 | 69 | 1022.6 |
| 20260505060003 | 9 | 226 | 6.4 | 11.3 | 0.00 | 0.00 | 0.00 | 69 | 1022.6 |
| 20260505055403 | 9 | 227 | 6.4 | 11.3 | 0.00 | 0.00 | 0.00 | 69 | 1022.6 |
| 20260505054503 | 9 | 228 | 6.4 | 11.3 | 0.00 | 0.00 | 0.00 | 68 | 1022.6 |
| 20260505053603 | 9 | 228 | 6.4 | 12.9 | 0.00 | 0.00 | 0.00 | 68 | 1023.0 |
| 20260505052703 | 9 | 224 | 6.4 | 11.3 | 0.00 | 0.00 | 0.00 | 68 | 1023.0 |
| 20260505051803 | 10 | 233 | 4.8 | 11.3 | 0.00 | 0.00 | 0.00 | 67 | 1023.0 |
| 20260505050904 | 10 | 233 | 6.4 | 11.3 | 0.00 | 0.00 | 0.00 | 67 | 1023.0 |
| 20260505040903 | 10 | 229 | 8.0 | 20.9 | 0.00 | 0.00 | 0.00 | 64 | 1023.0 |
| 20260505040005 | 10 | 226 | 8.0 | 16.1 | 0.00 | 0.00 | 0.00 | 65 | 1022.6 |
| 20260505035616 | 10 | 226 | 8.0 | 17.7 | 0.00 | 0.00 | 0.00 | 65 | 1023.0 |
| 20260505034503 | 10 | 227 | 6.4 | 17.7 | 0.00 | 0.00 | 0.00 | 66 | 1023.0 |
| 20260505033603 | 10 | 220 | 8.0 | 20.9 | 0.00 | 0.00 | 0.00 | 66 | 1023.4 |
| 20260505032703 | 10 | 228 | 8.0 | 16.1 | 0.00 | 0.00 | 0.00 | 67 | 1023.4 |
| 20260505031803 | 10 | 224 | 8.0 | 20.9 | 0.00 | 0.00 | 0.00 | 67 | 1023.4 |
| 20260505030903 | 10 | 225 | 8.0 | 14.5 | 0.00 | 0.00 | 0.00 | 66 | 1023.4 |
| 20260505030216 | 10 | 228 | 8.0 | 16.1 | 0.00 | 0.00 | 0.00 | 66 | 1023.4 |
| 20260505025618 | 10 | 231 | 8.0 | 16.1 | 0.00 | 0.00 | 0.00 | 66 | 1023.4 |
| 20260505024503 | 11 | 231 | 6.4 | 12.9 | 0.00 | 0.00 | 0.00 | 66 | 1023.4 |
| 20260505023603 | 11 | 228 | 6.4 | 16.1 | 0.00 | 0.00 | 0.00 | 65 | 1023.8 |
| 20260505022703 | 11 | 230 | 6.4 | 16.1 | 0.00 | 0.00 | 0.00 | 65 | 1023.8 |
| 20260505021803 | 11 | 234 | 6.4 | 12.9 | 0.00 | 0.00 | 0.00 | 64 | 1023.4 |
| 20260505020903 | 11 | 227 | 6.4 | 14.5 | 0.00 | 0.00 | 0.00 | 63 | 1023.4 |
| 20260505020218 | 11 | 229 | 6.4 | 12.9 | 0.00 | 0.00 | 0.00 | 63 | 1023.4 |
| 20260505015403 | 11 | 230 | 4.8 | 11.3 | 0.00 | 0.00 | 0.00 | 62 | 1023.4 |
| 20260505014503 | 12 | 233 | 6.4 | 16.1 | 0.00 | 0.00 | 0.00 | 60 | 1023.4 |
| 20260505013603 | 12 | 228 | 6.4 | 12.9 | 0.00 | 0.00 | 0.00 | 60 | 1023.0 |
| 20260505012703 | 12 | 243 | 4.8 | 11.3 | 0.00 | 0.00 | 0.00 | 59 | 1023.4 |
| 20260505011803 | 12 | 235 | 4.8 | 14.5 | 0.00 | 0.00 | 0.00 | 57 | 1023.0 |
| 20260505010903 | 12 | 234 | 4.8 | 16.1 | 0.00 | 0.00 | 0.00 | 57 | 1022.6 |
| 20260505010004 | 12 | 249 | 3.2 | 16.1 | 0.00 | 0.00 | 0.00 | 55 | 1023.0 |
| 20260505005403 | 12 | 241 | 3.2 | 14.5 | 0.00 | 0.00 | 0.00 | 55 | 1023.0 |
| 20260505004503 | 12 | 224 | 3.2 | 6.4 | 0.00 | 0.00 | 0.00 | 55 | 1023.0 |
| 20260505003603 | 12 | 252 | 3.2 | 11.3 | 0.00 | 0.00 | 0.00 | 54 | 1022.6 |
| 20260505002703 | 13 | 252 | 4.8 | 11.3 | 0.00 | 0.00 | 0.00 | 53 | 1023.0 |
| 20260505002017 | 13 | 231 | 4.8 | 11.3 | 0.00 | 0.00 | 0.00 | 52 | 1022.6 |
| 20260505000903 | 13 | 232 | 4.8 | 9.7 | 0.00 | 0.00 | 0.00 | 50 | 1022.6 |
| 20260505000003 | 13 | 232 | 6.4 | 16.1 | 0.00 | 0.00 | 0.00 | 48 | 1022.6 |
| 20260504235403 | 13 | 239 | 4.8 | 11.3 | 0.00 | 0.00 | 0.00 | 48 | 1022.6 |
| 20260504234503 | 14 | 240 | 3.2 | 11.3 | 0.00 | 0.00 | 0.00 | 48 | 1022.6 |
| 20260504233603 | 14 | 234 | 4.8 | 9.7 | 0.00 | 0.00 | 0.00 | 45 | 1022.6 |
| 20260504232703 | 15 | 219 | 3.2 | 9.7 | 0.00 | 0.00 | 0.00 | 44 | 1022.6 |
| 20260504231803 | 15 | 221 | 4.8 | 11.3 | 0.00 | 0.00 | 0.00 | 43 | 1022.6 |
| 20260504230903 | 16 | 223 | 4.8 | 12.9 | 0.00 | 0.00 | 0.00 | 41 | 1022.6 |
| 20260504230003 | 16 | 225 | 4.8 | 12.9 | 0.00 | 0.00 | 0.00 | 40 | 1022.6 |
| 20260504225616 | 16 | 225 | 4.8 | 12.9 | 0.00 | 0.00 | 0.00 | 38 | 1022.6 |
| 20260504224503 | 16 | 232 | 3.2 | 11.3 | 0.00 | 0.00 | 0.00 | 37 | 1022.6 |
| 20260504223817 | 16 | 211 | 3.2 | 9.7 | 0.00 | 0.00 | 0.00 | 36 | 1022.6 |
| 20260504222703 | 16 | 223 | 3.2 | 14.5 | 0.00 | 0.00 | 0.00 | 35 | 1022.6 |
| 20260504222018 | 17 | 250 | 3.2 | 11.3 | 0.00 | 0.00 | 0.00 | 38 | 1022.6 |
| 20260504220903 | 17 | 233 | 3.2 | 11.3 | 0.00 | 0.00 | 0.00 | 36 | 1022.6 |
| 20260504220217 | 17 | 207 | 4.8 | 14.5 | 0.00 | 0.00 | 0.00 | 38 | 1022.6 |
| 20260504215403 | 17 | 200 | 3.2 | 14.5 | 0.00 | 0.00 | 0.00 | 39 | 1022.6 |
| 20260504214503 | 17 | 210 | 3.2 | 9.7 | 0.00 | 0.00 | 0.00 | 41 | 1022.6 |
| 20260504213603 | 17 | 241 | 3.2 | 9.7 | 0.00 | 0.00 | 0.00 | 38 | 1022.6 |
| 20260504212918 | 17 | 212 | 1.6 | 6.4 | 0.00 | 0.00 | 0.00 | 39 | 1022.6 |
| 20260504211803 | 18 | 200 | 3.2 | 12.9 | 0.00 | 0.00 | 0.00 | 41 | 1022.6 |
| 20260504210903 | 18 | 206 | 1.6 | 12.9 | 0.00 | 0.00 | 0.00 | 40 | 1022.6 |
| 20260504210004 | 18 | 219 | 3.2 | 12.9 | 0.00 | 0.00 | 0.00 | 40 | 1022.6 |
| 20260504205403 | 18 | 221 | 3.2 | 12.9 | 0.00 | 0.00 | 0.00 | 41 | 1022.6 |
| 20260504204503 | 18 | 183 | 3.2 | 9.7 | 0.00 | 0.00 | 0.00 | 40 | 1022.6 |
| 20260504203816 | 18 | 195 | 3.2 | 9.7 | 0.00 | 0.00 | 0.00 | 41 | 1023.0 |
| 20260504202703 | 18 | 241 | 3.2 | 11.3 | 0.00 | 0.00 | 0.00 | 41 | 1022.6 |
| 20260504201803 | 19 | 222 | 3.2 | 9.7 | 0.00 | 0.00 | 0.00 | 42 | 1023.0 |
| 20260504200903 | 18 | 251 | 3.2 | 11.3 | 0.00 | 0.00 | 0.00 | 40 | 1023.0 |
| 20260504200218 | 18 | 267 | 4.8 | 12.9 | 0.00 | 0.00 | 0.00 | 42 | 1023.4 |
| 20260504195403 | 18 | 238 | 3.2 | 11.3 | 0.00 | 0.00 | 0.00 | 41 | 1023.4 |
| 20260504194717 | 18 | 188 | 3.2 | 11.3 | 0.00 | 0.00 | 0.00 | 43 | 1023.4 |
| 20260504193603 | 19 | 216 | 3.2 | 11.3 | 0.00 | 0.00 | 0.00 | 42 | 1023.4 |
| 20260504192703 | 18 | 144 | 3.2 | 9.7 | 0.00 | 0.00 | 0.00 | 42 | 1023.8 |
| 20260504191803 | 18 | 174 | 3.2 | 11.3 | 0.00 | 0.00 | 0.00 | 42 | 1023.8 |
| 20260504190903 | 18 | 190 | 3.2 | 14.5 | 0.00 | 0.00 | 0.00 | 41 | 1023.8 |
| 20260504190004 | 18 | 187 | 3.2 | 12.9 | 0.00 | 0.00 | 0.00 | 45 | 1023.8 |
| 20260504185403 | 18 | 219 | 4.8 | 12.9 | 0.00 | 0.00 | 0.00 | 39 | 1024.1 |
| 20260504184503 | 18 | 227 | 3.2 | 11.3 | 0.00 | 0.00 | 0.00 | 38 | 1023.8 |
| 20260504183603 | 17 | 203 | 4.8 | 12.9 | 0.00 | 0.00 | 0.00 | 39 | 1023.8 |
| 20260504182917 | 18 | 224 | 4.8 | 11.3 | 0.00 | 0.00 | 0.00 | 39 | 1024.1 |
| 20260504181803 | 17 | 245 | 4.8 | 12.9 | 0.00 | 0.00 | 0.00 | 41 | 1024.1 |
| 20260504181118 | 17 | 219 | 4.8 | 11.3 | 0.00 | 0.00 | 0.00 | 43 | 1024.1 |
| 20260504180217 | 17 | 207 | 4.8 | 12.9 | 0.00 | 0.00 | 0.00 | 44 | 1024.1 |
| 20260504175617 | 18 | 201 | 3.2 | 11.3 | 0.00 | 0.00 | 0.00 | 44 | 1024.1 |
| 20260504174503 | 17 | 227 | 3.2 | 14.5 | 0.00 | 0.00 | 0.00 | 48 | 1024.1 |
| 20260504173603 | 17 | 201 | 4.8 | 14.5 | 0.00 | 0.00 | 0.00 | 46 | 1024.1 |
| 20260504172917 | 17 | 183 | 3.2 | 9.7 | 0.00 | 0.00 | 0.00 | 47 | 1024.1 |
| 20260504171803 | 16 | 197 | 3.2 | 9.7 | 0.00 | 0.00 | 0.00 | 49 | 1024.5 |
| 20260504171117 | 16 | 151 | 3.2 | 11.3 | 0.00 | 0.00 | 0.00 | 51 | 1024.5 |
| 20260504150903 | 13 | 285 | 1.6 | 6.4 | 0.00 | 0.00 | 0.00 | 48 | 1025.3 |
| 20260504140903 | 15 | 278 | 3.2 | 12.9 | 0.00 | 0.00 | 0.00 | 42 | 1025.7 |
| 20260504130217 | 12 | 285 | 1.6 | 6.4 | 0.00 | 0.00 | 0.00 | 49 | 1024.5 |
| 20260504120217 | 8 | 240 | 3.2 | 6.4 | 0.00 | 0.00 | 0.00 | 55 | 1023.8 |
| 20260504081803 | 5 | 132 | 3.2 | 14.5 | 0.00 | 0.00 | 0.00 | 69 | 1023.8 |
| 20260504080903 | 5 | 111 | 3.2 | 27.4 | 0.00 | 0.00 | 0.00 | 71 | 1023.8 |